| time (UTC) | temp C | wind direction | speed KPH | gust KPH | rain 1hr cm | rain 24hr cm | rain mn cm | humidity % | barometer mb |
| 20260904120901 | 11 | 305 | 0.0 | 0.0 | 0.00 | 0.13 | 0.13 | 99 | 1011.8 |
| 20260904120356 | 11 | 305 | 0.0 | 0.0 | 0.00 | 0.13 | 0.13 | 99 | 1011.7 |
| 20260904115852 | 11 | 305 | 0.0 | 0.0 | 0.00 | 0.13 | 0.13 | 99 | 1011.8 |
| 20260904115346 | 11 | 305 | 0.0 | 0.0 | 0.18 | 0.13 | 0.13 | 99 | 1011.7 |
| 20260904114841 | 11 | 305 | 0.0 | 0.0 | 0.18 | 0.13 | 0.13 | 99 | 1011.9 |
| 20260904114336 | 11 | 305 | 0.0 | 0.0 | 0.13 | 0.10 | 0.10 | 99 | 1011.9 |
| 20260904113831 | 11 | 305 | 0.0 | 0.0 | 0.13 | 0.10 | 0.10 | 99 | 1011.9 |
| 20260904113330 | 11 | 305 | 0.0 | 0.0 | 0.00 | 0.08 | 0.08 | 99 | 1011.7 |
| 20260904112825 | 11 | 305 | 0.0 | 0.0 | 0.00 | 0.08 | 0.08 | 99 | 1011.8 |
| 20260904112321 | 11 | 305 | 0.0 | 0.0 | 0.18 | 0.08 | 0.08 | 99 | 1011.6 |
| 20260904111816 | 11 | 305 | 0.0 | 0.0 | 0.18 | 0.08 | 0.08 | 99 | 1011.8 |
| 20260904111312 | 12 | 305 | 0.0 | 0.0 | 0.13 | 0.05 | 0.05 | 99 | 1011.5 |
| 20260904110808 | 11 | 305 | 0.0 | 0.0 | 0.13 | 0.05 | 0.05 | 99 | 1011.4 |
| 20260904110306 | 11 | 305 | 0.0 | 0.0 | 0.13 | 0.05 | 0.05 | 99 | 1011.5 |
| 20260904105801 | 11 | 305 | 0.0 | 0.0 | 0.18 | 0.03 | 0.03 | 99 | 1011.8 |
| 20260904105256 | 11 | 305 | 0.0 | 0.0 | 0.18 | 0.03 | 0.03 | 99 | 1011.5 |
| 20260904104751 | 11 | 305 | 0.0 | 0.0 | 0.00 | 0.00 | 0.00 | 99 | 1011.7 |
| 20260904104247 | 11 | 305 | 0.0 | 0.0 | 0.00 | 0.00 | 0.00 | 99 | 1011.5 |
| 20260904103744 | 11 | 305 | 0.0 | 0.0 | 0.00 | 0.00 | 0.00 | 99 | 1011.6 |
| 20260904103238 | 11 | 305 | 0.0 | 0.0 | 0.00 | 0.00 | 0.00 | 99 | 1011.4 |
| 20260904102733 | 11 | 305 | 0.0 | 0.0 | 0.00 | 0.00 | 0.00 | 99 | 1011.5 |
| 20260904102229 | 11 | 305 | 0.0 | 0.0 | 0.00 | 0.00 | 0.00 | 99 | 1011.3 |
| 20260904101725 | 11 | 305 | 0.0 | 0.0 | 0.00 | 0.00 | 0.00 | 99 | 1011.5 |
| 20260904101221 | 11 | 305 | 0.0 | 0.0 | 0.00 | 0.00 | 0.00 | 99 | 1011.4 |
| 20260904100717 | 11 | 305 | 0.0 | 0.0 | 0.00 | 0.00 | 0.00 | 99 | 1011.4 |
| 20260904100213 | 11 | 305 | 0.0 | 0.0 | 0.00 | 0.00 | 0.00 | 99 | 1011.4 |
| 20260904095712 | 11 | 305 | 0.0 | 0.0 | 0.00 | 0.00 | 0.00 | 99 | 1011.4 |
| 20260904095206 | 11 | 305 | 0.0 | 0.0 | 0.00 | 0.00 | 0.00 | 99 | 1011.4 |
| 20260904094702 | 11 | 305 | 0.0 | 0.0 | 0.00 | 0.00 | 0.00 | 99 | 1011.0 |
| 20260904094156 | 11 | 305 | 0.0 | 0.0 | 0.00 | 0.00 | 0.00 | 99 | 1011.1 |
| 20260904093654 | 11 | 305 | 0.0 | 0.0 | 0.00 | 0.00 | 0.00 | 99 | 1011.1 |
| 20260904093153 | 11 | 305 | 0.0 | 0.0 | 0.00 | 0.00 | 0.00 | 99 | 1011.2 |
| 20260904092649 | 11 | 305 | 0.0 | 0.0 | 0.00 | 0.00 | 0.00 | 99 | 1011.2 |
| 20260904092145 | 11 | 305 | 0.0 | 0.0 | 0.00 | 0.00 | 0.00 | 99 | 1011.3 |
| 20260904091641 | 11 | 305 | 0.0 | 0.0 | 0.00 | 0.00 | 0.00 | 99 | 1011.1 |
| 20260904091140 | 11 | 305 | 0.0 | 0.0 | 0.00 | 0.00 | 0.00 | 99 | 1011.1 |
| 20260904090636 | 12 | 305 | 0.0 | 0.0 | 0.00 | 0.00 | 0.00 | 99 | 1011.4 |
| 20260904090132 | 12 | 305 | 0.0 | 0.0 | 0.00 | 0.00 | 0.00 | 99 | 1011.2 |
| 20260904085631 | 12 | 305 | 0.0 | 0.0 | 0.00 | 0.00 | 0.00 | 99 | 1010.9 |
| 20260904085126 | 12 | 305 | 0.0 | 0.0 | 0.00 | 0.00 | 0.00 | 99 | 1011.0 |
| 20260904084621 | 12 | 305 | 0.0 | 0.0 | 0.00 | 0.00 | 0.00 | 99 | 1011.1 |
| 20260904084118 | 12 | 305 | 0.0 | 0.0 | 0.00 | 0.00 | 0.00 | 99 | 1011.0 |
| 20260904083614 | 12 | 305 | 0.0 | 0.0 | 0.00 | 0.00 | 0.00 | 99 | 1011.1 |
| 20260904083109 | 12 | 305 | 0.0 | 0.0 | 0.00 | 0.00 | 0.00 | 99 | 1011.0 |
| 20260904082604 | 12 | 305 | 0.0 | 0.0 | 0.00 | 0.00 | 0.00 | 99 | 1011.0 |
| 20260904082100 | 12 | 305 | 0.0 | 0.0 | 0.00 | 0.00 | 0.00 | 99 | 1011.2 |
| 20260904081555 | 12 | 305 | 0.0 | 0.0 | 0.00 | 0.00 | 0.00 | 99 | 1011.3 |
| 20260904081050 | 12 | 305 | 0.0 | 0.0 | 0.00 | 0.00 | 0.00 | 99 | 1011.1 |
| 20260904080546 | 12 | 305 | 0.0 | 0.0 | 0.00 | 0.00 | 0.00 | 99 | 1011.1 |
| 20260904080042 | 12 | 305 | 0.0 | 0.0 | 0.00 | 0.00 | 0.00 | 99 | 1011.3 |
| 20260904075537 | 12 | 305 | 0.0 | 0.0 | 0.00 | 0.00 | 0.00 | 99 | 1011.1 |
| 20260904075032 | 12 | 305 | 0.0 | 0.0 | 0.00 | 0.00 | 0.00 | 99 | 1011.3 |
| 20260904074531 | 12 | 305 | 0.0 | 0.0 | 0.00 | 0.00 | 0.00 | 99 | 1011.3 |
| 20260904074026 | 12 | 305 | 0.0 | 0.0 | 0.00 | 0.00 | 0.00 | 99 | 1011.2 |
| 20260904073521 | 12 | 305 | 0.0 | 0.0 | 0.00 | 0.00 | 0.00 | 99 | 1011.2 |
| 20260904073018 | 12 | 305 | 0.0 | 0.0 | 0.00 | 0.00 | 0.00 | 99 | 1011.1 |
| 20260904072513 | 12 | 305 | 0.0 | 0.0 | 0.00 | 0.00 | 0.00 | 99 | 1010.9 |
| 20260904072008 | 12 | 305 | 0.0 | 0.0 | 0.00 | 0.00 | 0.00 | 99 | 1011.1 |
| 20260904071503 | 12 | 305 | 0.0 | 0.0 | 0.00 | 0.00 | 0.00 | 99 | 1011.0 |
| 20260904070958 | 12 | 305 | 0.0 | 1.6 | 0.00 | 0.00 | 0.00 | 99 | 1011.1 |
| 20260904070456 | 12 | 305 | 0.0 | 0.0 | 0.00 | 0.00 | 0.00 | 99 | 1011.2 |
| 20260904065951 | 12 | 305 | 0.0 | 0.0 | 0.00 | 0.58 | 0.58 | 99 | 1011.1 |
| 20260904065447 | 12 | 305 | 0.0 | 0.0 | 0.00 | 0.58 | 0.58 | 99 | 1011.0 |
| 20260904064942 | 12 | 305 | 0.0 | 0.0 | 0.00 | 0.58 | 0.58 | 99 | 1011.3 |
| 20260904064439 | 12 | 305 | 0.0 | 0.0 | 0.00 | 0.58 | 0.58 | 99 | 1011.0 |
| 20260904063933 | 12 | 305 | 0.0 | 0.0 | 0.00 | 0.58 | 0.58 | 99 | 1011.0 |
| 20260904063430 | 12 | 305 | 0.0 | 0.0 | 0.00 | 0.58 | 0.58 | 99 | 1011.0 |
| 20260904062925 | 12 | 305 | 0.0 | 0.0 | 0.00 | 0.58 | 0.58 | 99 | 1010.9 |
| 20260904062421 | 12 | 305 | 0.0 | 0.0 | 0.00 | 0.58 | 0.58 | 99 | 1011.0 |
| 20260904061916 | 12 | 305 | 0.0 | 0.0 | 0.00 | 0.58 | 0.58 | 99 | 1011.0 |
| 20260904061413 | 12 | 305 | 0.0 | 0.0 | 0.00 | 0.58 | 0.58 | 99 | 1010.9 |
| 20260904060909 | 12 | 305 | 0.0 | 0.0 | 0.00 | 0.58 | 0.58 | 99 | 1010.9 |
| 20260904060404 | 12 | 305 | 0.0 | 0.0 | 0.00 | 0.58 | 0.58 | 99 | 1011.1 |
| 20260904055900 | 12 | 305 | 0.0 | 0.0 | 0.00 | 0.58 | 0.58 | 99 | 1011.1 |
| 20260904055355 | 12 | 305 | 0.0 | 0.0 | 0.00 | 0.58 | 0.58 | 99 | 1011.0 |
| 20260904054850 | 12 | 305 | 0.0 | 0.0 | 0.00 | 0.58 | 0.58 | 99 | 1010.9 |
| 20260904054346 | 12 | 305 | 0.0 | 0.0 | 0.00 | 0.58 | 0.58 | 99 | 1011.1 |
| 20260904053842 | 12 | 305 | 0.0 | 0.0 | 0.00 | 0.58 | 0.58 | 99 | 1011.4 |
| 20260904053341 | 12 | 305 | 0.0 | 0.0 | 0.00 | 0.58 | 0.58 | 99 | 1011.0 |
| 20260904052837 | 12 | 305 | 0.0 | 0.0 | 0.00 | 0.58 | 0.58 | 99 | 1011.1 |
| 20260904052333 | 12 | 305 | 0.0 | 0.0 | 0.00 | 0.58 | 0.58 | 99 | 1011.2 |
| 20260904051829 | 12 | 305 | 0.0 | 0.0 | 0.00 | 0.58 | 0.58 | 99 | 1011.2 |
| 20260904051325 | 12 | 305 | 0.0 | 0.0 | 0.00 | 0.58 | 0.58 | 99 | 1011.2 |
| 20260904050819 | 12 | 305 | 0.0 | 0.0 | 0.00 | 0.58 | 0.58 | 99 | 1011.0 |
| 20260904050317 | 12 | 305 | 0.0 | 0.0 | 0.00 | 0.58 | 0.58 | 99 | 1011.3 |
| 20260904045816 | 12 | 305 | 0.0 | 0.0 | 0.00 | 0.58 | 0.58 | 99 | 1011.3 |
| 20260904045311 | 12 | 305 | 0.0 | 0.0 | 0.00 | 0.58 | 0.58 | 98 | 1011.2 |
| 20260904044806 | 12 | 305 | 0.0 | 0.0 | 0.00 | 0.58 | 0.58 | 98 | 1011.3 |
| 20260904044303 | 12 | 305 | 0.0 | 0.0 | 0.00 | 0.58 | 0.58 | 98 | 1011.4 |
| 20260904043758 | 12 | 305 | 0.0 | 0.0 | 0.00 | 0.58 | 0.58 | 98 | 1011.4 |
| 20260904043254 | 12 | 305 | 0.0 | 0.0 | 0.00 | 0.58 | 0.58 | 98 | 1011.3 |
| 20260904042749 | 12 | 304 | 0.0 | 0.0 | 0.00 | 0.58 | 0.58 | 98 | 1011.4 |
| 20260904042246 | 12 | 304 | 0.0 | 0.0 | 0.00 | 0.58 | 0.58 | 98 | 1011.3 |
| 20260904041745 | 12 | 304 | 0.0 | 0.0 | 0.00 | 0.58 | 0.58 | 97 | 1011.2 |
| 20260904041242 | 12 | 304 | 0.0 | 0.0 | 0.00 | 0.58 | 0.58 | 97 | 1011.5 |
| 20260904040737 | 12 | 304 | 0.0 | 0.0 | 0.00 | 0.58 | 0.58 | 97 | 1011.2 |
| 20260904040232 | 12 | 304 | 0.0 | 0.0 | 0.00 | 0.58 | 0.58 | 97 | 1011.2 |
| 20260904035729 | 12 | 304 | 0.0 | 0.0 | 0.00 | 0.58 | 0.58 | 97 | 1011.3 |
| 20260904035224 | 12 | 321 | 0.0 | 0.0 | 0.00 | 0.58 | 0.58 | 97 | 1011.4 |
| 20260904034722 | 12 | 321 | 0.0 | 0.0 | 0.00 | 0.58 | 0.58 | 96 | 1011.3 |
| 20260904034218 | 12 | 321 | 0.0 | 0.0 | 0.00 | 0.58 | 0.58 | 96 | 1011.1 |
| 20260904033714 | 12 | 321 | 0.0 | 0.0 | 0.00 | 0.58 | 0.58 | 96 | 1011.1 |
| 20260904033211 | 12 | 321 | 0.0 | 0.0 | 0.00 | 0.58 | 0.58 | 95 | 1011.0 |
| 20260904032707 | 12 | 321 | 0.0 | 0.0 | 0.00 | 0.58 | 0.58 | 95 | 1011.0 |
| 20260904032206 | 12 | 321 | 0.0 | 0.0 | 0.00 | 0.58 | 0.58 | 95 | 1011.0 |
| 20260904031706 | 12 | 321 | 0.0 | 0.0 | 0.00 | 0.58 | 0.58 | 94 | 1010.8 |
| 20260904031201 | 13 | 321 | 0.0 | 0.0 | 0.00 | 0.58 | 0.58 | 94 | 1010.7 |
| 20260904030657 | 13 | 321 | 0.0 | 0.0 | 0.00 | 0.58 | 0.58 | 93 | 1010.8 |
| 20260904030152 | 13 | 321 | 0.0 | 0.0 | 0.00 | 0.58 | 0.58 | 92 | 1010.7 |
| 20260904025648 | 13 | 321 | 0.0 | 0.0 | 0.00 | 0.58 | 0.58 | 92 | 1010.7 |
| 20260904025143 | 13 | 321 | 0.0 | 0.0 | 0.00 | 0.58 | 0.58 | 91 | 1010.6 |
| 20260904024638 | 13 | 321 | 0.0 | 0.0 | 0.00 | 0.58 | 0.58 | 90 | 1010.5 |
| 20260904024134 | 13 | 321 | 0.0 | 0.0 | 0.00 | 0.58 | 0.58 | 89 | 1010.6 |
| 20260904023630 | 14 | 321 | 0.0 | 0.0 | 0.00 | 0.58 | 0.58 | 89 | 1010.5 |
| 20260904023126 | 14 | 321 | 0.0 | 0.0 | 0.00 | 0.58 | 0.58 | 89 | 1010.7 |
| 20260904022625 | 14 | 321 | 0.0 | 0.0 | 0.00 | 0.58 | 0.58 | 89 | 1010.6 |
| 20260904022122 | 15 | 321 | 0.0 | 0.0 | 0.00 | 0.58 | 0.58 | 88 | 1010.5 |
| 20260904021618 | 15 | 321 | 0.0 | 0.0 | 0.00 | 0.58 | 0.58 | 87 | 1010.5 |
| 20260904021113 | 15 | 321 | 0.0 | 0.0 | 0.00 | 0.58 | 0.58 | 87 | 1010.6 |
| 20260904020609 | 15 | 330 | 0.0 | 0.0 | 0.00 | 0.58 | 0.58 | 86 | 1010.6 |
| 20260904015557 | 15 | 322 | 0.0 | 1.6 | 0.00 | 0.58 | 0.58 | 86 | 1010.6 |
| 20260904015056 | 15 | 326 | 0.0 | 0.0 | 0.00 | 0.58 | 0.58 | 86 | 1010.6 |
| 20260904014550 | 15 | 312 | 0.0 | 0.0 | 0.00 | 0.58 | 0.58 | 86 | 1010.5 |
| 20260904014046 | 15 | 338 | 0.0 | 0.0 | 0.00 | 0.58 | 0.58 | 85 | 1010.5 |
| 20260904013542 | 15 | 303 | 0.0 | 0.0 | 0.00 | 0.58 | 0.58 | 86 | 1010.6 |
| 20260904013039 | 15 | 318 | 0.0 | 1.6 | 0.00 | 0.58 | 0.58 | 87 | 1010.8 |
| 20260904012538 | 15 | 132 | 4.8 | 8.0 | 0.00 | 0.58 | 0.58 | 84 | 1010.5 |
| 20260904012032 | 15 | 306 | 0.0 | 1.6 | 0.00 | 0.58 | 0.58 | 84 | 1010.7 |
| 20260904011532 | 15 | 274 | 1.6 | 1.6 | 0.00 | 0.58 | 0.58 | 84 | 1011.0 |
| 20260904011027 | 15 | 308 | 0.0 | 0.0 | 0.00 | 0.58 | 0.58 | 84 | 1010.7 |
| 20260904010524 | 15 | 50 | 1.6 | 1.6 | 0.00 | 0.58 | 0.58 | 85 | 1010.7 |
| 20260904010020 | 15 | 306 | 0.0 | 0.0 | 0.00 | 0.58 | 0.58 | 86 | 1010.7 |
| 20260904005519 | 15 | 328 | 0.0 | 1.6 | 0.00 | 0.58 | 0.58 | 86 | 1010.7 |
| 20260904005015 | 15 | 294 | 1.6 | 1.6 | 0.00 | 0.58 | 0.58 | 84 | 1010.7 |
| 20260904004510 | 15 | 317 | 0.0 | 1.6 | 0.00 | 0.58 | 0.58 | 83 | 1010.6 |
| 20260904004005 | 15 | 307 | 0.0 | 0.0 | 0.00 | 0.58 | 0.58 | 81 | 1010.8 |
| 20260904003501 | 15 | 295 | 1.6 | 1.6 | 0.00 | 0.58 | 0.58 | 80 | 1010.7 |
| 20260904002956 | 15 | 303 | 0.0 | 0.0 | 0.00 | 0.58 | 0.58 | 81 | 1010.6 |
| 20260904002452 | 15 | 307 | 0.0 | 0.0 | 0.00 | 0.58 | 0.58 | 80 | 1010.4 |
| 20260904001950 | 15 | 288 | 1.6 | 1.6 | 0.00 | 0.58 | 0.58 | 76 | 1010.7 |
| 20260904001447 | 16 | 312 | 0.0 | 0.0 | 0.00 | 0.58 | 0.58 | 83 | 1010.8 |
| 20260904000941 | 16 | 314 | 0.0 | 0.0 | 0.00 | 0.58 | 0.58 | 85 | 1010.9 |
| 20260904000441 | 15 | 318 | 0.0 | 0.0 | 0.00 | 0.58 | 0.58 | 86 | 1011.0 |
| 20260903235936 | 15 | 312 | 0.0 | 0.0 | 0.00 | 0.58 | 0.58 | 86 | 1010.9 |
| 20260903235432 | 15 | 255 | 1.6 | 1.6 | 0.00 | 0.58 | 0.58 | 86 | 1011.1 |
| 20260903234932 | 15 | 310 | 0.0 | 0.0 | 0.00 | 0.58 | 0.58 | 89 | 1010.9 |
| 20260903234428 | 15 | 327 | 0.0 | 0.0 | 0.00 | 0.58 | 0.58 | 88 | 1010.7 |
| 20260903233924 | 14 | 307 | 0.0 | 0.0 | 0.00 | 0.58 | 0.58 | 88 | 1011.1 |
| 20260903233420 | 14 | 299 | 1.6 | 1.6 | 0.00 | 0.58 | 0.58 | 89 | 1010.9 |
| 20260903232920 | 14 | 306 | 0.0 | 0.0 | 0.00 | 0.58 | 0.58 | 89 | 1010.8 |
| 20260903232415 | 14 | 359 | 0.0 | 0.0 | 0.00 | 0.58 | 0.58 | 88 | 1010.9 |
| 20260903231915 | 14 | 358 | 1.6 | 1.6 | 0.00 | 0.58 | 0.58 | 88 | 1011.1 |
| 20260903231409 | 14 | 307 | 0.0 | 0.0 | 0.00 | 0.58 | 0.58 | 89 | 1011.1 |
| 20260903230904 | 14 | 307 | 0.0 | 1.6 | 0.00 | 0.58 | 0.58 | 88 | 1011.1 |
| 20260903230400 | 14 | 285 | 1.6 | 1.6 | 0.00 | 0.58 | 0.58 | 86 | 1011.4 |
| 20260903225856 | 14 | 308 | 1.6 | 1.6 | 0.00 | 0.58 | 0.58 | 85 | 1011.3 |
| 20260903225352 | 15 | 309 | 3.2 | 4.8 | 0.00 | 0.58 | 0.58 | 85 | 1011.2 |
| 20260903224848 | 15 | 322 | 4.8 | 4.8 | 0.00 | 0.58 | 0.58 | 84 | 1011.2 |
| 20260903224344 | 15 | 147 | 1.6 | 3.2 | 0.00 | 0.58 | 0.58 | 82 | 1011.3 |
| 20260903223839 | 15 | 297 | 4.8 | 4.8 | 0.00 | 0.58 | 0.58 | 80 | 1011.4 |
| 20260903223338 | 15 | 344 | 1.6 | 1.6 | 0.00 | 0.58 | 0.58 | 82 | 1011.2 |
| 20260903222833 | 16 | 278 | 6.4 | 11.3 | 0.00 | 0.58 | 0.58 | 79 | 1011.0 |
| 20260903222332 | 16 | 305 | 1.6 | 3.2 | 0.00 | 0.58 | 0.58 | 77 | 1010.9 |
| 20260903221827 | 16 | 299 | 4.8 | 8.0 | 0.00 | 0.58 | 0.58 | 77 | 1010.9 |
| 20260903221326 | 17 | 319 | 0.0 | 0.0 | 0.00 | 0.58 | 0.58 | 78 | 1011.1 |
| 20260903220824 | 16 | 297 | 0.0 | 0.0 | 0.00 | 0.58 | 0.58 | 80 | 1010.9 |
| 20260903220319 | 16 | 251 | 1.6 | 1.6 | 0.00 | 0.58 | 0.58 | 78 | 1010.9 |
| 20260903215817 | 16 | 303 | 0.0 | 0.0 | 0.00 | 0.58 | 0.58 | 79 | 1011.0 |
| 20260903215314 | 16 | 314 | 0.0 | 1.6 | 0.00 | 0.58 | 0.58 | 78 | 1010.7 |
| 20260903214811 | 16 | 312 | 0.0 | 0.0 | 0.00 | 0.58 | 0.58 | 78 | 1011.1 |
| 20260903214308 | 16 | 308 | 0.0 | 0.0 | 0.00 | 0.58 | 0.58 | 79 | 1011.0 |
| 20260903213802 | 16 | 344 | 0.0 | 1.6 | 0.00 | 0.58 | 0.58 | 79 | 1011.0 |
| 20260903213258 | 16 | 302 | 1.6 | 1.6 | 0.00 | 0.58 | 0.58 | 79 | 1011.1 |
| 20260903212753 | 16 | 291 | 1.6 | 1.6 | 0.00 | 0.58 | 0.58 | 78 | 1011.1 |
| 20260903212250 | 16 | 311 | 0.0 | 0.0 | 0.00 | 0.58 | 0.58 | 81 | 1011.3 |
| 20260903211743 | 16 | 316 | 0.0 | 1.6 | 0.00 | 0.58 | 0.58 | 81 | 1011.1 |
| 20260903211240 | 16 | 316 | 0.0 | 0.0 | 0.00 | 0.58 | 0.58 | 79 | 1011.4 |
| 20260903210736 | 16 | 316 | 0.0 | 0.0 | 0.00 | 0.58 | 0.58 | 80 | 1011.1 |
| 20260903210231 | 16 | 212 | 3.2 | 3.2 | 0.00 | 0.58 | 0.58 | 81 | 1011.2 |
| 20260903205730 | 16 | 296 | 1.6 | 1.6 | 0.00 | 0.58 | 0.58 | 83 | 1011.1 |
| 20260903205230 | 16 | 307 | 0.0 | 0.0 | 0.00 | 0.58 | 0.58 | 84 | 1011.0 |
| 20260903204725 | 16 | 299 | 1.6 | 3.2 | 0.00 | 0.58 | 0.58 | 82 | 1010.8 |
| 20260903204221 | 16 | 308 | 0.0 | 0.0 | 0.00 | 0.58 | 0.58 | 84 | 1011.0 |
| 20260903203717 | 16 | 290 | 3.2 | 4.8 | 0.00 | 0.58 | 0.58 | 84 | 1011.1 |
| 20260903203212 | 16 | 305 | 1.6 | 1.6 | 0.13 | 0.58 | 0.58 | 85 | 1011.0 |
| 20260903202706 | 16 | 298 | 1.6 | 1.6 | 0.13 | 0.58 | 0.58 | 85 | 1011.0 |
| 20260903202202 | 16 | 277 | 1.6 | 1.6 | 0.13 | 0.58 | 0.58 | 85 | 1010.8 |
| 20260903201701 | 16 | 318 | 0.0 | 0.0 | 0.00 | 0.56 | 0.56 | 87 | 1011.0 |
| 20260903201156 | 16 | 318 | 0.0 | 0.0 | 0.00 | 0.56 | 0.56 | 87 | 1011.0 |
| 20260903200650 | 15 | 311 | 0.0 | 0.0 | 0.00 | 0.56 | 0.56 | 87 | 1011.2 |
| 20260903200146 | 16 | 314 | 0.0 | 1.6 | 0.00 | 0.56 | 0.56 | 86 | 1011.1 |
| 20260903195642 | 16 | 307 | 1.6 | 1.6 | 0.00 | 0.56 | 0.56 | 85 | 1011.1 |
| 20260903195138 | 16 | 290 | 3.2 | 3.2 | 0.00 | 0.56 | 0.56 | 83 | 1011.1 |
| 20260903194637 | 16 | 172 | 1.6 | 3.2 | 0.00 | 0.56 | 0.56 | 83 | 1011.2 |
| 20260903194137 | 16 | 342 | 3.2 | 3.2 | 0.00 | 0.56 | 0.56 | 84 | 1010.9 |
| 20260903193633 | 16 | 286 | 0.0 | 1.6 | 0.00 | 0.56 | 0.56 | 84 | 1010.9 |
| 20260903193129 | 16 | 186 | 3.2 | 3.2 | 0.00 | 0.56 | 0.56 | 84 | 1011.0 |
| 20260903192626 | 16 | 322 | 0.0 | 0.0 | 0.00 | 0.56 | 0.56 | 88 | 1011.2 |
| 20260903192120 | 16 | 325 | 0.0 | 0.0 | 0.00 | 0.56 | 0.56 | 89 | 1011.2 |
| 20260903191616 | 16 | 313 | 0.0 | 0.0 | 0.00 | 0.56 | 0.56 | 89 | 1011.3 |
| 20260903191111 | 15 | 286 | 1.6 | 1.6 | 0.00 | 0.56 | 0.56 | 91 | 1011.3 |
| 20260903190610 | 15 | 305 | 0.0 | 1.6 | 0.00 | 0.56 | 0.56 | 92 | 1011.4 |
| 20260903190105 | 15 | 298 | 0.0 | 1.6 | 0.00 | 0.56 | 0.56 | 93 | 1011.2 |
| 20260903185600 | 15 | 310 | 0.0 | 0.0 | 0.00 | 0.56 | 0.56 | 93 | 1011.5 |
| 20260903185056 | 14 | 269 | 1.6 | 3.2 | 0.00 | 0.56 | 0.56 | 93 | 1011.3 |
| 20260903184552 | 15 | 183 | 3.2 | 3.2 | 0.00 | 0.56 | 0.56 | 92 | 1011.3 |
| 20260903184047 | 15 | 312 | 0.0 | 0.0 | 0.00 | 0.56 | 0.56 | 93 | 1011.5 |
| 20260903183546 | 15 | 204 | 3.2 | 3.2 | 0.18 | 0.56 | 0.56 | 92 | 1011.3 |
| 20260903183041 | 15 | 314 | 0.0 | 1.6 | 0.18 | 0.56 | 0.56 | 92 | 1011.3 |
| 20260903182539 | 15 | 168 | 3.2 | 4.8 | 0.00 | 0.53 | 0.53 | 89 | 1011.3 |
| 20260903182036 | 15 | 314 | 1.6 | 1.6 | 0.00 | 0.53 | 0.53 | 89 | 1011.3 |
| 20260903181534 | 15 | 317 | 0.0 | 0.0 | 0.00 | 0.53 | 0.53 | 90 | 1011.4 |
| 20260903181034 | 16 | 299 | 1.6 | 1.6 | 0.00 | 0.53 | 0.53 | 90 | 1010.9 |
| 20260903180530 | 16 | 312 | 0.0 | 0.0 | 0.00 | 0.53 | 0.53 | 91 | 1011.0 |
| 20260903180029 | 16 | 304 | 1.6 | 1.6 | 0.00 | 0.53 | 0.53 | 90 | 1011.2 |
| 20260903175528 | 16 | 305 | 0.0 | 0.0 | 0.00 | 0.53 | 0.53 | 91 | 1011.0 |
| 20260903175028 | 16 | 307 | 0.0 | 0.0 | 0.00 | 0.53 | 0.53 | 89 | 1011.0 |
| 20260903174523 | 16 | 293 | 0.0 | 1.6 | 0.00 | 0.53 | 0.53 | 92 | 1010.9 |
| 20260903174018 | 15 | 299 | 0.0 | 0.0 | 0.00 | 0.53 | 0.53 | 94 | 1010.8 |
| 20260903173512 | 15 | 311 | 0.0 | 0.0 | 0.00 | 0.53 | 0.53 | 97 | 1010.8 |
| 20260903173009 | 15 | 318 | 0.0 | 0.0 | 0.00 | 0.53 | 0.53 | 98 | 1010.9 |
| 20260903172503 | 15 | 282 | 1.6 | 1.6 | 0.00 | 0.53 | 0.53 | 99 | 1010.8 |
| 20260903171959 | 14 | 23 | 1.6 | 1.6 | 0.00 | 0.53 | 0.53 | 99 | 1011.0 |
| 20260903171454 | 14 | 303 | 0.0 | 0.0 | 0.00 | 0.53 | 0.53 | 99 | 1011.1 |
| 20260903170948 | 14 | 303 | 0.0 | 0.0 | 0.00 | 0.53 | 0.53 | 99 | 1011.2 |
| 20260903170443 | 14 | 303 | 0.0 | 0.0 | 0.00 | 0.53 | 0.53 | 99 | 1011.2 |
| 20260903165942 | 13 | 303 | 0.0 | 0.0 | 0.00 | 0.53 | 0.53 | 99 | 1011.3 |
| 20260903165441 | 13 | 302 | 0.0 | 0.0 | 0.00 | 0.53 | 0.53 | 99 | 1011.3 |
| 20260903164937 | 13 | 319 | 0.0 | 0.0 | 0.00 | 0.53 | 0.53 | 99 | 1011.2 |
| 20260903164432 | 13 | 301 | 0.0 | 0.0 | 0.00 | 0.53 | 0.53 | 99 | 1011.4 |
| 20260903163931 | 13 | 333 | 0.0 | 1.6 | 0.00 | 0.53 | 0.53 | 99 | 1011.4 |
| 20260903163427 | 14 | 321 | 0.0 | 0.0 | 0.00 | 0.53 | 0.53 | 99 | 1011.3 |
| 20260903162923 | 14 | 321 | 0.0 | 0.0 | 0.00 | 0.53 | 0.53 | 99 | 1011.4 |
| 20260903162420 | 13 | 319 | 0.0 | 0.0 | 0.00 | 0.53 | 0.53 | 99 | 1011.4 |
| 20260903161915 | 13 | 318 | 0.0 | 0.0 | 0.00 | 0.53 | 0.53 | 99 | 1011.4 |
| 20260903161410 | 13 | 318 | 0.0 | 0.0 | 0.00 | 0.53 | 0.53 | 99 | 1011.2 |
| 20260903160906 | 12 | 317 | 0.0 | 0.0 | 0.00 | 0.53 | 0.53 | 99 | 1011.2 |
| 20260903160405 | 12 | 317 | 0.0 | 0.0 | 0.00 | 0.53 | 0.53 | 99 | 1011.2 |
| 20260903155904 | 12 | 321 | 0.0 | 0.0 | 0.00 | 0.53 | 0.53 | 99 | 1011.4 |
| 20260903155359 | 12 | 321 | 0.0 | 0.0 | 0.13 | 0.53 | 0.53 | 99 | 1011.3 |
| 20260903154855 | 12 | 327 | 0.0 | 0.0 | 0.61 | 0.53 | 0.53 | 99 | 1011.2 |
| 20260903154351 | 12 | 326 | 0.0 | 0.0 | 0.66 | 0.51 | 0.51 | 99 | 1011.7 |
| 20260903153851 | 12 | 298 | 0.0 | 0.0 | 0.30 | 0.43 | 0.43 | 99 | 1011.3 |
| 20260903153346 | 12 | 300 | 0.0 | 0.0 | 0.30 | 0.41 | 0.41 | 99 | 1011.6 |
| 20260903152843 | 12 | 300 | 0.0 | 1.6 | 0.18 | 0.38 | 0.38 | 99 | 1011.5 |
| 20260903152338 | 12 | 301 | 0.0 | 0.0 | 0.18 | 0.38 | 0.38 | 99 | 1011.4 |
| 20260903151833 | 12 | 316 | 0.0 | 0.0 | 0.00 | 0.36 | 0.36 | 99 | 1011.5 |
| 20260903151329 | 12 | 319 | 0.0 | 0.0 | 0.13 | 0.36 | 0.36 | 99 | 1011.3 |
| 20260903150828 | 12 | 305 | 0.0 | 0.0 | 0.13 | 0.36 | 0.36 | 99 | 1011.4 |
| 20260903150324 | 12 | 294 | 0.0 | 0.0 | 0.00 | 0.33 | 0.33 | 99 | 1011.3 |
| 20260903145818 | 12 | 303 | 0.0 | 0.0 | 0.18 | 0.33 | 0.33 | 99 | 1011.2 |
| 20260903145313 | 12 | 308 | 0.0 | 0.0 | 0.18 | 0.33 | 0.33 | 99 | 1011.1 |
| 20260903144813 | 12 | 322 | 0.0 | 1.6 | 0.00 | 0.30 | 0.30 | 99 | 1011.2 |
| 20260903144308 | 12 | 295 | 0.0 | 0.0 | 0.13 | 0.30 | 0.30 | 99 | 1011.1 |
| 20260903143803 | 12 | 314 | 0.0 | 0.0 | 0.13 | 0.30 | 0.30 | 99 | 1011.3 |
| 20260903143300 | 12 | 323 | 0.0 | 0.0 | 0.00 | 0.28 | 0.28 | 99 | 1011.4 |
| 20260903142755 | 12 | 300 | 0.0 | 1.6 | 0.18 | 0.28 | 0.28 | 99 | 1011.4 |
| 20260903142251 | 12 | 302 | 0.0 | 0.0 | 0.18 | 0.28 | 0.28 | 99 | 1011.1 |
| 20260903141747 | 12 | 72 | 1.6 | 3.2 | 0.13 | 0.25 | 0.25 | 99 | 1010.9 |
| 20260903141242 | 11 | 312 | 0.0 | 0.0 | 0.13 | 0.25 | 0.25 | 99 | 1010.8 |
| 20260903140737 | 11 | 313 | 0.0 | 0.0 | 0.00 | 0.23 | 0.23 | 99 | 1010.9 |
| 20260903140232 | 11 | 313 | 0.0 | 0.0 | 0.00 | 0.23 | 0.23 | 99 | 1010.8 |
| 20260903135728 | 11 | 313 | 0.0 | 0.0 | 0.00 | 0.23 | 0.23 | 99 | 1010.8 |
| 20260903135223 | 11 | 313 | 0.0 | 0.0 | 0.00 | 0.23 | 0.23 | 99 | 1010.8 |
| 20260903134721 | 11 | 313 | 0.0 | 0.0 | 0.18 | 0.23 | 0.23 | 99 | 1010.8 |
| 20260903134218 | 11 | 313 | 0.0 | 0.0 | 0.18 | 0.23 | 0.23 | 99 | 1010.6 |
| 20260903133715 | 11 | 310 | 0.0 | 0.0 | 0.30 | 0.23 | 0.23 | 99 | 1010.6 |
| 20260903133212 | 11 | 310 | 0.0 | 0.0 | 0.30 | 0.20 | 0.20 | 99 | 1010.7 |
| 20260903132711 | 11 | 302 | 0.0 | 0.0 | 0.36 | 0.18 | 0.18 | 99 | 1010.6 |
| 20260903132206 | 11 | 301 | 0.0 | 0.0 | 0.18 | 0.15 | 0.15 | 99 | 1010.6 |
| 20260903131701 | 11 | 301 | 0.0 | 0.0 | 0.00 | 0.13 | 0.13 | 99 | 1010.4 |
| 20260903131201 | 11 | 301 | 0.0 | 0.0 | 0.13 | 0.13 | 0.13 | 99 | 1010.5 |
| 20260903130656 | 11 | 212 | 3.2 | 3.2 | 0.13 | 0.13 | 0.13 | 99 | 1010.4 |
| 20260903130150 | 11 | 316 | 0.0 | 0.0 | 0.00 | 0.10 | 0.10 | 99 | 1010.6 |
| 20260903125648 | 11 | 315 | 0.0 | 0.0 | 0.00 | 0.10 | 0.10 | 99 | 1010.5 |
| 20260903125144 | 11 | 313 | 0.0 | 0.0 | 0.00 | 0.10 | 0.10 | 99 | 1010.4 |
| 20260903124638 | 11 | 296 | 0.0 | 0.0 | 0.00 | 0.10 | 0.10 | 99 | 1010.5 |
| 20260903124137 | 11 | 297 | 0.0 | 0.0 | 0.00 | 0.10 | 0.10 | 99 | 1010.6 |
| 20260903123637 | 11 | 302 | 0.0 | 0.0 | 0.00 | 0.10 | 0.10 | 99 | 1010.4 |
| 20260903123136 | 11 | 307 | 0.0 | 0.0 | 0.00 | 0.10 | 0.10 | 99 | 1010.6 |
| 20260903122631 | 11 | 318 | 0.0 | 0.0 | 0.00 | 0.10 | 0.10 | 99 | 1010.6 |
| 20260903122130 | 11 | 310 | 0.0 | 0.0 | 0.00 | 0.10 | 0.10 | 99 | 1010.6 |
| 20260903121629 | 11 | 317 | 0.0 | 0.0 | 0.00 | 0.10 | 0.10 | 99 | 1010.5 |
| 20260903121126 | 11 | 317 | 0.0 | 0.0 | 0.00 | 0.10 | 0.10 | 99 | 1010.4 |